Weather History for Manitowoc, WI

Change the Weather History Date:

Sunday, February 16, 2014

  Actual Average Record
Temperature  
Mean Temperature 14 °F -  
Max Temperature 21 °F 30 °F 52 °F (1981)
Min Temperature 10 °F 14 °F -9 °F (1958)
Degree Days  
Heating Degree Days 50    
Moisture  
Dew Point 11 °F    
Average Humidity 80    
Maximum Humidity 96    
Minimum Humidity 63    
Precipitation  
Precipitation 0.00 in - - ()
Sea Level Pressure  
Sea Level Pressure 30.19 in    
Wind  
Wind Speed 9 mph (NNW)    
Max Wind Speed 17 mph    
Max Gust Speed 21 mph    
Visibility 8 miles    
Events Snow    
Averages and records for this station are not official NWS values.
T = Trace of Precipitation, MM = Missing Value Source: NWS Daily Summary

Daily Weather History Graph

Daily Weather History Graph

Search for Another Location

Airport:

Trip Planner

Search our weather history database for the weather conditions in past years. The results will help you decide how hot, cold, wet, or windy it might be!

Date:

Astronomy

Feb. 16, 2014 Rise Set
Actual Time 6:48 AM CST 5:21 PM CST
Civil Twilight 6:18 AM CST 5:51 PM CST
Nautical Twilight 5:45 AM CST 6:25 PM CST
Astronomical Twilight 5:11 AM CST 6:58 PM CST
Moon 7:24 PM CST (2/16) 7:13 AM CST (2/16)
Length of Visible Light 11h 32m
Length of Day
10h 33m
Full, 97% of the Moon is Illuminated
Feb 16
Full
Feb 22
Last Quarter
Mar 1
New
Mar 8
First Quarter
Mar 16
Full

Hourly Weather History & Observations

Time (CST) Temp. Windchill Dew Point Humidity Pressure Visibility Wind Dir Wind Speed Gust Speed Precip Events Conditions
12:19 AM 17.6 °F 8.2 °F 15.8 °F 93% 29.93 in 3.0 mi WSW 6.9 mph - 0.00 in Snow Light Snow
12:27 AM 17.6 °F 10.7 °F 15.8 °F 93% 29.93 in 2.0 mi WSW 4.6 mph - 0.00 in Snow Light Snow
12:33 AM 17.6 °F 10.7 °F 15.8 °F 93% 29.93 in 1.8 mi West 4.6 mph - 0.00 in Snow Light Snow
12:56 AM 18.0 °F 7.7 °F 15.1 °F 88% 30.00 in 3.0 mi West 8.1 mph - 0.00 in Snow Light Snow
1:49 AM 17.6 °F 8.2 °F 15.8 °F 93% 29.94 in 8.0 mi NW 6.9 mph - 0.00 in Snow Light Snow
1:56 AM 17.1 °F 6.6 °F 15.1 °F 92% 30.01 in 7.0 mi NW 8.1 mph - 0.00 in Snow Light Snow
2:56 AM 17.1 °F 5.0 °F 14.0 °F 88% 30.02 in 5.0 mi NNW 10.4 mph - 0.00 in Snow Light Snow
3:56 AM 16.0 °F 3.6 °F 12.9 °F 88% 30.03 in 7.0 mi NNW 10.4 mph - 0.00 in Snow Light Snow
4:56 AM 14.0 °F 2.0 °F 10.0 °F 84% 30.05 in 9.0 mi North 9.2 mph - 0.00 in Snow Light Snow
5:56 AM 12.9 °F -0.9 °F 10.0 °F 88% 30.09 in 8.0 mi NW 11.5 mph - 0.00 in Snow Light Snow
6:56 AM 14.0 °F -0.8 °F 10.9 °F 88% 30.12 in 3.0 mi NNW 13.8 mph 20.7 mph 0.00 in Snow Light Snow
7:56 AM 14.0 °F -1.4 °F 10.0 °F 84% 30.17 in 5.0 mi NNW 15.0 mph - 0.00 in Snow Light Snow
8:41 AM 15.8 °F 1.4 °F 10.4 °F 79% 30.12 in 7.0 mi North 13.8 mph - 0.00 in Snow Light Snow
8:56 AM 15.1 °F -0.1 °F 10.0 °F 80% 30.20 in 9.0 mi North 15.0 mph 20.7 mph 0.00 in Snow Light Snow
9:32 AM 15.8 °F -0.2 °F 10.4 °F 79% 30.13 in 3.0 mi North 17.3 mph - 0.00 in Snow Light Snow
9:56 AM 16.0 °F 1.1 °F 10.0 °F 77% 30.22 in 7.0 mi North 15.0 mph - 0.00 in Snow Light Snow
10:37 AM 17.6 °F 3.7 °F 10.4 °F 73% 30.16 in 10.0 mi North 13.8 mph - 0.00 in   Partly Cloudy
10:56 AM 18.0 °F 4.2 °F 10.0 °F 71% 30.26 in 10.0 mi North 13.8 mph - 0.00 in   Clear
11:32 AM 19.4 °F 7.2 °F 10.4 °F 68% 30.21 in 9.0 mi North 11.5 mph - 0.00 in Snow Light Snow
11:56 AM 19.0 °F 5.6 °F 9.0 °F 65% 30.29 in 10.0 mi North 13.8 mph - 0.00 in   Overcast
12:42 PM 19.4 °F 7.2 °F 8.6 °F 63% 30.21 in 10.0 mi North 11.5 mph - N/A   Scattered Clouds
12:56 PM 19.0 °F 5.6 °F 9.0 °F 65% 30.28 in 10.0 mi North 13.8 mph - N/A   Partly Cloudy
1:56 PM 19.0 °F 8.2 °F 9.0 °F 65% 30.30 in 10.0 mi NE 9.2 mph - N/A   Clear
2:56 PM 19.0 °F 8.2 °F 10.0 °F 68% 30.32 in 9.0 mi North 9.2 mph - 0.00 in Snow Light Snow
3:34 PM 19.4 °F 8.6 °F 10.4 °F 68% 30.25 in 9.0 mi North 9.2 mph - 0.00 in Snow Light Snow
3:56 PM 18.0 °F 8.7 °F 12.0 °F 78% 30.33 in 7.0 mi Variable 6.9 mph - 0.00 in Snow Light Snow
4:56 PM 18.0 °F 12.7 °F 12.0 °F 78% 30.36 in 9.0 mi North 3.5 mph - 0.00 in Snow Light Snow
5:56 PM 16.0 °F 10.4 °F 10.9 °F 81% 30.37 in 9.0 mi NW 3.5 mph - 0.00 in Snow Light Snow
6:56 PM 16.0 °F 10.4 °F 10.0 °F 77% 30.38 in 8.0 mi NNW 3.5 mph - 0.00 in Snow Light Snow
7:56 PM 14.0 °F 5.1 °F 9.0 °F 80% 30.36 in 9.0 mi North 5.8 mph - 0.00 in Snow Light Snow
8:56 PM 10.9 °F 4.7 °F 7.0 °F 84% 30.37 in 9.0 mi NW 3.5 mph - 0.00 in   Overcast
9:40 PM 10.4 °F 4.0 °F 6.8 °F 85% 30.26 in 10.0 mi NNE 3.5 mph - N/A   Partly Cloudy
9:56 PM 10.9 °F - 8.1 °F 88% 30.34 in 10.0 mi Calm Calm - N/A   Partly Cloudy
10:56 PM 16.0 °F 2.9 °F 15.1 °F 96% 30.34 in 10.0 mi ESE 11.5 mph - N/A   Mostly Cloudy
11:56 PM 21.9 °F 10.4 °F 15.1 °F 75% 30.33 in 10.0 mi SE 11.5 mph - N/A   Mostly Cloudy